Hourly Data Report for September 23, 2017

All times are specified in Local Standard Time (LST). Add 1 hour to adjust for Daylight Saving Time where and when it is observed.

ALERT CLIMATE
NUNAVUT

82°30'00.000" N
62°20'00.000" W
65.40 m
2400305
71355
ZLT

Download Data

Hourly Data (September 2017)
Hourly Data Report for September 23, 2017
Temp Definition
°C
Dew Point Temp Definition
°C
Rel Hum Definition
%
Wind Dir Definition
10's deg

Wind Spd Definition
km/h
Visibility Definition
km
Stn Press Definition
kPa
Hmdx Definition


Wind Chill Definition


Weather Definition


TIME
00:00 -4.3 -4.5 98 27 8   100.71   -8 LegendNANA
01:00 -4.3 -4.6 98 28 5   100.69   -6 LegendNANA
02:00 -4.3 -4.7 97 29 5   100.69   -6 LegendNANA
03:00 -4.3 -4.6 98 28 4   100.69   -6 LegendNANA
04:00 -4.3 -4.8 97 20 4   100.69   -6 LegendNANA
05:00 -3.9 -5.1 91 22 8   100.70   -7 LegendNANA
06:00 -4.0 -5.2 91 24 8   100.71   -7 LegendNANA
07:00 -4.4 -5.2 94 29 6   100.72   -7 LegendNANA
08:00 -4.3 -5.1 94 30 4   100.73   -6 LegendNANA
09:00 -4.4 -5.2 94 32 4   100.73   -6 LegendNANA
10:00 -4.5 -5.0 96 36 11   100.76   -9 LegendNANA
11:00 -4.5 -4.9 97 6 6   100.77   -7 LegendNANA
12:00 -4.4 -4.8 97 12 3   100.79   -6 LegendNANA
13:00 -4.3 -4.7 97 12 3   100.81   -6 LegendNANA
14:00 -6.0 -7.1 92 2 16   100.85   -12 LegendNANA
15:00 -7.0 -7.7 94 4 11   100.92   -12 LegendNANA
16:00 -7.4 -8.2 94 4 8   100.96   -11 LegendNANA
17:00 -8.1 -8.9 94 4 8   101.04   -12 LegendNANA
18:00 -8.6 -9.3 95 6 7   101.06   -12 LegendNANA
19:00 -8.7 -9.3 95 13 4   101.10   -11 LegendNANA
20:00 -8.6 -9.3 95   0   101.13     LegendNANA
21:00 -8.4 -8.9 96 34 2   101.16   -9 LegendNANA
22:00 -8.5 -9.1 95 21 3   101.18   -10 LegendNANA
23:00 -8.6 -9.3 95 24 2   101.18   -10 LegendNANA

Notes on Data Quality.

Legend

  • E = Estimated
  • M = Missing
  • NA = Not Available
  • ‡ = Partner data that is not subject to review by the National Climate Archives
Date modified: